Year,Month,Day,Hour,Minute,Value (Times are PST for temperature in C)
2011,08,19,00,00,13.40
2011,08,19,00,01,13.40
2011,08,19,00,02,13.40
2011,08,19,00,03,13.40
2011,08,19,00,04,13.30
2011,08,19,00,05,13.30
2011,08,19,00,06,13.30
2011,08,19,00,07,13.30
2011,08,19,00,08,13.20
2011,08,19,00,09,13.20
2011,08,19,00,10,13.20
2011,08,19,00,11,13.10
2011,08,19,00,12,13.10
2011,08,19,00,13,13.10
2011,08,19,00,14,13.10
2011,08,19,00,15,13.00
2011,08,19,00,16,13.00
2011,08,19,00,17,13.00
2011,08,19,00,18,13.00
2011,08,19,00,19,13.00
2011,08,19,00,20,12.90
2011,08,19,00,21,12.90
2011,08,19,00,22,12.90
2011,08,19,00,23,12.90
2011,08,19,00,24,12.90
2011,08,19,00,25,12.90
2011,08,19,00,26,12.90
2011,08,19,00,27,12.90
2011,08,19,00,28,12.90
2011,08,19,00,29,12.80
2011,08,19,00,30,12.80
2011,08,19,00,31,12.80
2011,08,19,00,32,12.80
2011,08,19,00,33,12.80
2011,08,19,00,34,12.80
2011,08,19,00,35,12.80
2011,08,19,00,36,12.80
2011,08,19,00,37,12.80
2011,08,19,00,38,12.80
2011,08,19,00,39,12.80
2011,08,19,00,40,12.80
2011,08,19,00,41,12.80
2011,08,19,00,42,12.80
2011,08,19,00,43,12.80
2011,08,19,00,44,12.80
2011,08,19,00,45,12.80
2011,08,19,00,46,12.80
2011,08,19,00,47,12.80
2011,08,19,00,48,12.80
2011,08,19,00,49,12.80
2011,08,19,00,50,12.80
2011,08,19,00,51,12.80
2011,08,19,00,52,12.80
2011,08,19,00,53,12.80
2011,08,19,00,54,12.80
2011,08,19,00,55,12.80
2011,08,19,00,56,12.80
2011,08,19,00,57,12.80
2011,08,19,00,58,12.70
2011,08,19,00,59,12.70
2011,08,19,01,00,12.70
2011,08,19,01,01,12.70
2011,08,19,01,02,12.70
2011,08,19,01,03,12.70
2011,08,19,01,04,12.70
2011,08,19,01,05,12.70
2011,08,19,01,06,12.70
2011,08,19,01,07,12.70
2011,08,19,01,08,12.70
2011,08,19,01,09,12.70
2011,08,19,01,10,12.70
2011,08,19,01,11,12.70
2011,08,19,01,12,12.70
2011,08,19,01,13,12.70
2011,08,19,01,14,12.70
2011,08,19,01,15,12.70
2011,08,19,01,16,12.70
2011,08,19,01,17,12.70
2011,08,19,01,18,12.70
2011,08,19,01,19,12.70
2011,08,19,01,20,12.70
2011,08,19,01,21,12.60
2011,08,19,01,22,12.70
2011,08,19,01,23,12.60
2011,08,19,01,24,12.70
2011,08,19,01,25,12.70
2011,08,19,01,26,12.70
2011,08,19,01,27,12.70
2011,08,19,01,28,12.70
2011,08,19,01,29,12.70
2011,08,19,01,30,12.70
2011,08,19,01,31,12.70
2011,08,19,01,32,12.70
2011,08,19,01,33,12.70
2011,08,19,01,34,12.60
2011,08,19,01,35,12.60
2011,08,19,01,36,12.60
2011,08,19,01,37,12.60
2011,08,19,01,38,12.60
2011,08,19,01,39,12.60
2011,08,19,01,40,12.60
2011,08,19,01,41,12.60
2011,08,19,01,42,12.60
2011,08,19,01,43,12.60
2011,08,19,01,44,12.50
2011,08,19,01,45,12.50
2011,08,19,01,46,12.50
2011,08,19,01,47,12.50
2011,08,19,01,48,12.50
2011,08,19,01,49,12.40
2011,08,19,01,50,12.40
2011,08,19,01,51,12.40
2011,08,19,01,52,12.40
2011,08,19,01,53,12.40
2011,08,19,01,54,12.40
2011,08,19,01,55,12.40
2011,08,19,01,56,12.40
2011,08,19,01,57,12.30
2011,08,19,01,58,12.30
2011,08,19,01,59,12.30
2011,08,19,02,00,12.30
2011,08,19,02,01,12.30
2011,08,19,02,02,12.30
2011,08,19,02,03,12.30
2011,08,19,02,04,12.30
2011,08,19,02,05,12.30
2011,08,19,02,06,12.30
2011,08,19,02,07,12.30
2011,08,19,02,08,12.30
2011,08,19,02,09,12.20
2011,08,19,02,10,12.20
2011,08,19,02,11,12.20
2011,08,19,02,12,12.20
2011,08,19,02,13,12.20
2011,08,19,02,14,12.20
2011,08,19,02,15,12.20
2011,08,19,02,16,12.20
2011,08,19,02,17,12.20
2011,08,19,02,18,12.20
2011,08,19,02,19,12.10
2011,08,19,02,20,12.10
2011,08,19,02,21,12.10
2011,08,19,02,22,12.10
2011,08,19,02,23,12.10
2011,08,19,02,24,12.10
2011,08,19,02,25,12.10
2011,08,19,02,26,12.10
2011,08,19,02,27,12.10
2011,08,19,02,28,12.10
2011,08,19,02,29,12.00
2011,08,19,02,30,12.00
2011,08,19,02,31,12.00
2011,08,19,02,32,12.00
2011,08,19,02,33,12.00
2011,08,19,02,34,11.90
2011,08,19,02,35,11.90
2011,08,19,02,36,11.90
2011,08,19,02,37,11.90
2011,08,19,02,38,11.90
2011,08,19,02,39,11.90
2011,08,19,02,40,11.90
2011,08,19,02,41,11.80
2011,08,19,02,42,11.80
2011,08,19,02,43,11.80
2011,08,19,02,44,11.80
2011,08,19,02,45,11.80
2011,08,19,02,46,11.80
2011,08,19,02,47,11.80
2011,08,19,02,48,11.80
2011,08,19,02,49,11.80
2011,08,19,02,50,11.80
2011,08,19,02,51,11.80
2011,08,19,02,52,11.80
2011,08,19,02,53,11.80
2011,08,19,02,54,11.80
2011,08,19,02,55,11.80
2011,08,19,02,56,11.80
2011,08,19,02,57,11.80
2011,08,19,02,58,11.80
2011,08,19,02,59,11.80
2011,08,19,03,00,11.80
2011,08,19,03,01,11.80
2011,08,19,03,02,11.80
2011,08,19,03,03,11.80
2011,08,19,03,04,11.80
2011,08,19,03,05,11.80
2011,08,19,03,06,11.80
2011,08,19,03,07,11.80
2011,08,19,03,08,11.80
2011,08,19,03,09,11.80
2011,08,19,03,10,11.80
2011,08,19,03,11,11.80
2011,08,19,03,12,11.80
2011,08,19,03,13,11.80
2011,08,19,03,14,11.80
2011,08,19,03,15,11.80
2011,08,19,03,16,11.80
2011,08,19,03,17,11.80
2011,08,19,03,18,11.80
2011,08,19,03,19,11.70
2011,08,19,03,20,11.70
2011,08,19,03,21,11.70
2011,08,19,03,22,11.70
2011,08,19,03,23,11.70
2011,08,19,03,24,11.70
2011,08,19,03,25,11.70
2011,08,19,03,26,11.60
2011,08,19,03,27,11.60
2011,08,19,03,28,11.60
2011,08,19,03,29,11.60
2011,08,19,03,30,11.60
2011,08,19,03,31,11.60
2011,08,19,03,32,11.60
2011,08,19,03,33,11.60
2011,08,19,03,34,11.60
2011,08,19,03,35,11.60
2011,08,19,03,36,11.60
2011,08,19,03,37,11.60
2011,08,19,03,38,11.60
2011,08,19,03,39,11.60
2011,08,19,03,40,11.60
2011,08,19,03,41,11.60
2011,08,19,03,42,11.60
2011,08,19,03,43,11.60
2011,08,19,03,44,11.60
2011,08,19,03,45,11.60
2011,08,19,03,46,11.60
2011,08,19,03,47,11.60
2011,08,19,03,48,11.60
2011,08,19,03,49,11.60
2011,08,19,03,50,11.60
2011,08,19,03,51,11.60
2011,08,19,03,52,11.60
2011,08,19,03,53,11.60
2011,08,19,03,54,11.60
2011,08,19,03,55,11.60
2011,08,19,03,56,11.60
2011,08,19,03,57,11.70
2011,08,19,03,58,11.70
2011,08,19,03,59,11.70
2011,08,19,04,00,11.70
2011,08,19,04,01,11.70
2011,08,19,04,02,11.70
2011,08,19,04,03,11.70
2011,08,19,04,04,11.70
2011,08,19,04,05,11.70
2011,08,19,04,06,11.70
2011,08,19,04,07,11.60
2011,08,19,04,08,11.60
2011,08,19,04,09,11.60
2011,08,19,04,10,11.60
2011,08,19,04,11,11.60
2011,08,19,04,12,11.60
2011,08,19,04,13,11.60
2011,08,19,04,14,11.60
2011,08,19,04,15,11.60
2011,08,19,04,16,11.60
2011,08,19,04,17,11.60
2011,08,19,04,18,11.60
2011,08,19,04,19,11.60
2011,08,19,04,20,11.60
2011,08,19,04,21,11.60
2011,08,19,04,22,11.50
2011,08,19,04,23,11.50
2011,08,19,04,24,11.50
2011,08,19,04,25,11.50
2011,08,19,04,26,11.50
2011,08,19,04,27,11.50
2011,08,19,04,28,11.40
2011,08,19,04,29,11.40
2011,08,19,04,30,11.40
2011,08,19,04,31,11.40
2011,08,19,04,32,11.40
2011,08,19,04,33,11.40
2011,08,19,04,34,11.40
2011,08,19,04,35,11.40
2011,08,19,04,36,11.40
2011,08,19,04,37,11.40
2011,08,19,04,38,11.40
2011,08,19,04,39,11.40
2011,08,19,04,40,11.40
2011,08,19,04,41,11.40
2011,08,19,04,42,11.40
2011,08,19,04,43,11.30
2011,08,19,04,44,11.30
2011,08,19,04,45,11.30
2011,08,19,04,46,11.30
2011,08,19,04,47,11.30
2011,08,19,04,48,11.30
2011,08,19,04,49,11.30
2011,08,19,04,50,11.20
2011,08,19,04,51,11.20
2011,08,19,04,52,11.20
2011,08,19,04,53,11.20
2011,08,19,04,54,11.20
2011,08,19,04,55,11.20
2011,08,19,04,56,11.20
2011,08,19,04,57,11.10
2011,08,19,04,58,11.10
2011,08,19,04,59,11.10
2011,08,19,05,00,11.10
2011,08,19,05,01,11.10
2011,08,19,05,02,11.10
2011,08,19,05,03,11.10
2011,08,19,05,04,11.10
2011,08,19,05,05,11.10
2011,08,19,05,06,11.10
2011,08,19,05,07,11.10
2011,08,19,05,08,11.10
2011,08,19,05,09,11.10
2011,08,19,05,10,11.10
2011,08,19,05,11,11.10
2011,08,19,05,12,11.10
2011,08,19,05,13,11.10
2011,08,19,05,14,11.10
2011,08,19,05,15,11.10
2011,08,19,05,16,11.10
2011,08,19,05,17,11.10
2011,08,19,05,18,11.10
2011,08,19,05,19,11.10
2011,08,19,05,20,11.10
2011,08,19,05,21,11.10
2011,08,19,05,22,11.10
2011,08,19,05,23,11.10
2011,08,19,05,24,11.10
2011,08,19,05,25,11.10
2011,08,19,05,26,11.10
2011,08,19,05,27,11.10
2011,08,19,05,28,11.00
2011,08,19,05,29,11.00
2011,08,19,05,30,11.00
2011,08,19,05,31,11.00
2011,08,19,05,32,11.00
2011,08,19,05,33,11.00
2011,08,19,05,34,11.00
2011,08,19,05,35,11.00
2011,08,19,05,36,11.00
2011,08,19,05,37,11.00
2011,08,19,05,38,11.00
2011,08,19,05,39,11.00
2011,08,19,05,40,11.00
2011,08,19,05,41,11.10
2011,08,19,05,42,11.10
2011,08,19,05,43,11.10
2011,08,19,05,44,11.10
2011,08,19,05,45,11.10
2011,08,19,05,46,11.10
2011,08,19,05,47,11.10
2011,08,19,05,48,11.10
2011,08,19,05,49,11.10
2011,08,19,05,50,11.10
2011,08,19,05,51,11.10
2011,08,19,05,52,11.10
2011,08,19,05,53,11.10
2011,08,19,05,54,11.10
2011,08,19,05,55,11.10
2011,08,19,05,56,11.00
2011,08,19,05,57,11.00
2011,08,19,05,58,11.00
2011,08,19,05,59,11.00
2011,08,19,06,00,11.00
2011,08,19,06,01,11.00
2011,08,19,06,02,11.00
2011,08,19,06,03,10.90
2011,08,19,06,04,10.90
2011,08,19,06,05,10.90
2011,08,19,06,06,10.90
2011,08,19,06,07,10.90
2011,08,19,06,08,10.90
2011,08,19,06,09,10.90
2011,08,19,06,10,10.90
2011,08,19,06,11,10.80
2011,08,19,06,12,10.80
2011,08,19,06,13,10.80
2011,08,19,06,14,10.80
2011,08,19,06,15,10.80
2011,08,19,06,16,10.80
2011,08,19,06,17,10.80
2011,08,19,06,18,10.80
2011,08,19,06,19,10.80
2011,08,19,06,20,10.80
2011,08,19,06,21,10.80
2011,08,19,06,22,10.80
2011,08,19,06,23,10.80
2011,08,19,06,24,10.70
2011,08,19,06,25,10.70
2011,08,19,06,26,10.70
2011,08,19,06,27,10.70
2011,08,19,06,28,10.70
2011,08,19,06,29,10.80
2011,08,19,06,30,10.80
2011,08,19,06,31,10.80
2011,08,19,06,32,10.80
2011,08,19,06,33,10.80
2011,08,19,06,34,10.80
2011,08,19,06,35,10.80
2011,08,19,06,36,10.80
2011,08,19,06,37,10.80
2011,08,19,06,38,10.70
2011,08,19,06,39,10.70
2011,08,19,06,40,10.70
2011,08,19,06,41,10.70
2011,08,19,06,42,10.80
2011,08,19,06,43,10.80
2011,08,19,06,44,10.70
2011,08,19,06,45,10.70
2011,08,19,06,46,10.70
2011,08,19,06,47,10.70
2011,08,19,06,48,10.70
2011,08,19,06,49,10.70
2011,08,19,06,50,10.70
2011,08,19,06,51,10.70
2011,08,19,06,52,10.70
2011,08,19,06,53,10.70
2011,08,19,06,54,10.70
2011,08,19,06,55,10.70
2011,08,19,06,56,10.70
2011,08,19,06,57,10.70
2011,08,19,06,58,10.70
2011,08,19,06,59,10.70
2011,08,19,07,00,10.70
2011,08,19,07,01,10.70
2011,08,19,07,02,10.70
2011,08,19,07,03,10.70
2011,08,19,07,04,10.70
2011,08,19,07,05,10.70
2011,08,19,07,06,10.70
2011,08,19,07,07,10.70
2011,08,19,07,08,10.70
2011,08,19,07,09,10.80
2011,08,19,07,10,10.80
2011,08,19,07,11,10.80
2011,08,19,07,12,10.80
2011,08,19,07,13,10.90
2011,08,19,07,14,10.90
2011,08,19,07,15,10.90
2011,08,19,07,16,10.90
2011,08,19,07,17,11.00
2011,08,19,07,18,11.00
2011,08,19,07,19,11.00
2011,08,19,07,20,11.10
2011,08,19,07,21,11.10
2011,08,19,07,22,11.10
2011,08,19,07,23,11.10
2011,08,19,07,24,11.10
2011,08,19,07,25,11.10
2011,08,19,07,26,11.10
2011,08,19,07,27,11.20
2011,08,19,07,28,11.20
2011,08,19,07,29,11.20
2011,08,19,07,30,11.20
2011,08,19,07,31,11.20
2011,08,19,07,32,11.20
2011,08,19,07,33,11.20
2011,08,19,07,34,11.30
2011,08,19,07,35,11.30
2011,08,19,07,36,11.30
2011,08,19,07,37,11.30
2011,08,19,07,38,11.30
2011,08,19,07,39,11.30
2011,08,19,07,40,11.40
2011,08,19,07,41,11.40
2011,08,19,07,42,11.40
2011,08,19,07,43,11.40
2011,08,19,07,44,11.50
2011,08,19,07,45,11.50
2011,08,19,07,46,11.60
2011,08,19,07,47,11.70
2011,08,19,07,48,11.70
2011,08,19,07,49,11.80
2011,08,19,07,50,11.90
2011,08,19,07,51,11.90
2011,08,19,07,52,12.00
2011,08,19,07,53,12.10
2011,08,19,07,54,12.20
2011,08,19,07,55,12.20
2011,08,19,07,56,12.30
2011,08,19,07,57,12.30
2011,08,19,07,58,12.40
2011,08,19,07,59,12.50
2011,08,19,08,00,12.50
2011,08,19,08,01,12.60
2011,08,19,08,02,12.70
2011,08,19,08,03,12.70
2011,08,19,08,04,12.80
2011,08,19,08,05,12.80
2011,08,19,08,06,12.90
2011,08,19,08,07,13.00
2011,08,19,08,08,13.10
2011,08,19,08,09,13.20
2011,08,19,08,10,13.20
2011,08,19,08,11,13.30
2011,08,19,08,12,13.40
2011,08,19,08,13,13.50
2011,08,19,08,14,13.60
2011,08,19,08,15,13.70
2011,08,19,08,16,13.80
2011,08,19,08,17,13.90
2011,08,19,08,18,14.00
2011,08,19,08,19,14.00
2011,08,19,08,20,14.10
2011,08,19,08,21,14.20
2011,08,19,08,22,14.30
2011,08,19,08,23,14.40
2011,08,19,08,24,14.50
2011,08,19,08,25,14.60
2011,08,19,08,26,14.70
2011,08,19,08,27,14.80
2011,08,19,08,28,14.80
2011,08,19,08,29,14.90
2011,08,19,08,30,14.90
2011,08,19,08,31,15.00
2011,08,19,08,32,15.10
2011,08,19,08,33,15.10
2011,08,19,08,34,15.20
2011,08,19,08,35,15.20
2011,08,19,08,36,15.30
2011,08,19,08,37,15.30
2011,08,19,08,38,15.40
2011,08,19,08,39,15.40
2011,08,19,08,40,15.50
2011,08,19,08,41,15.50
2011,08,19,08,42,15.60
2011,08,19,08,43,15.60
2011,08,19,08,44,15.70
2011,08,19,08,45,15.70
2011,08,19,08,46,15.70
2011,08,19,08,47,15.70
2011,08,19,08,48,15.70
2011,08,19,08,49,15.70
2011,08,19,08,50,15.80
2011,08,19,08,51,15.80
2011,08,19,08,52,15.80
2011,08,19,08,53,15.80
2011,08,19,08,54,15.80
2011,08,19,08,55,15.80
2011,08,19,08,56,15.90
2011,08,19,08,57,15.90
2011,08,19,08,58,15.90
2011,08,19,08,59,15.90
2011,08,19,09,00,16.00
2011,08,19,09,01,16.00
2011,08,19,09,02,16.10
2011,08,19,09,03,16.20
2011,08,19,09,04,16.20
2011,08,19,09,05,16.30
2011,08,19,09,06,16.30
2011,08,19,09,07,16.40
2011,08,19,09,08,16.50
2011,08,19,09,09,16.60
2011,08,19,09,10,16.70
2011,08,19,09,11,16.80
2011,08,19,09,12,16.90
2011,08,19,09,13,16.90
2011,08,19,09,14,16.90
2011,08,19,09,15,16.80
2011,08,19,09,16,16.80
2011,08,19,09,17,16.80
2011,08,19,09,18,16.80
2011,08,19,09,19,16.80
2011,08,19,09,20,16.80
2011,08,19,09,21,16.80
2011,08,19,09,22,16.80
2011,08,19,09,23,16.80
2011,08,19,09,24,16.80
2011,08,19,09,25,16.80
2011,08,19,09,26,16.80
2011,08,19,09,27,16.80
2011,08,19,09,28,16.70
2011,08,19,09,29,16.70
2011,08,19,09,30,16.70
2011,08,19,09,31,16.70
2011,08,19,09,32,16.60
2011,08,19,09,33,16.70
2011,08,19,09,34,16.70
2011,08,19,09,35,16.70
2011,08,19,09,36,16.80
2011,08,19,09,37,16.80
2011,08,19,09,38,16.90
2011,08,19,09,39,16.90
2011,08,19,09,40,16.90
2011,08,19,09,41,17.00
2011,08,19,09,42,17.00
2011,08,19,09,43,17.10
2011,08,19,09,44,17.20
2011,08,19,09,45,17.30
2011,08,19,09,46,17.40
2011,08,19,09,47,17.50
2011,08,19,09,48,17.60
2011,08,19,09,49,17.70
2011,08,19,09,50,17.80
2011,08,19,09,51,17.90
2011,08,19,09,52,17.90
2011,08,19,09,53,17.90
2011,08,19,09,54,17.90
2011,08,19,09,55,18.00
2011,08,19,09,56,18.00
2011,08,19,09,57,18.10
2011,08,19,09,58,18.10
2011,08,19,09,59,18.20
2011,08,19,10,00,18.20
2011,08,19,10,01,18.10
2011,08,19,10,02,18.10
2011,08,19,10,03,18.20
2011,08,19,10,04,18.20
2011,08,19,10,05,18.20
2011,08,19,10,06,18.20
2011,08,19,10,07,18.20
2011,08,19,10,08,18.20
2011,08,19,10,09,18.20
2011,08,19,10,10,18.20
2011,08,19,10,11,18.20
2011,08,19,10,12,18.30
2011,08,19,10,13,18.30
2011,08,19,10,14,18.40
2011,08,19,10,15,18.40
2011,08,19,10,16,18.40
2011,08,19,10,17,18.50
2011,08,19,10,18,18.50
2011,08,19,10,19,18.60
2011,08,19,10,20,18.50
2011,08,19,10,21,18.50
2011,08,19,10,22,18.60
2011,08,19,10,23,18.60
2011,08,19,10,24,18.70
2011,08,19,10,25,18.80
2011,08,19,10,26,18.80
2011,08,19,10,27,18.80
2011,08,19,10,28,18.80
2011,08,19,10,29,18.80
2011,08,19,10,30,18.80
2011,08,19,10,31,18.90
2011,08,19,10,32,18.90
2011,08,19,10,33,18.90
2011,08,19,10,34,19.00
2011,08,19,10,35,19.00
2011,08,19,10,36,19.10
2011,08,19,10,37,19.10
2011,08,19,10,38,19.10
2011,08,19,10,39,19.10
2011,08,19,10,40,19.20
2011,08,19,10,41,19.20
2011,08,19,10,42,19.20
2011,08,19,10,43,19.30
2011,08,19,10,44,19.30
2011,08,19,10,45,19.30
2011,08,19,10,46,19.30
2011,08,19,10,47,19.30
2011,08,19,10,48,19.40
2011,08,19,10,49,19.50
2011,08,19,10,50,19.50
2011,08,19,10,51,19.60
2011,08,19,10,52,19.60
2011,08,19,10,53,19.60
2011,08,19,10,54,19.60
2011,08,19,10,55,19.60
2011,08,19,10,56,19.60
2011,08,19,10,57,19.60
2011,08,19,10,58,19.60
2011,08,19,10,59,19.60
2011,08,19,11,00,19.60
2011,08,19,11,01,19.60
2011,08,19,11,02,19.60
2011,08,19,11,03,19.60
2011,08,19,11,04,19.50
2011,08,19,11,05,19.40
2011,08,19,11,06,19.40
2011,08,19,11,07,19.30
2011,08,19,11,08,19.10
2011,08,19,11,09,19.00
2011,08,19,11,10,18.80
2011,08,19,11,11,18.60
2011,08,19,11,12,18.60
2011,08,19,11,13,18.60
2011,08,19,11,14,18.60
2011,08,19,11,15,18.60
2011,08,19,11,16,18.60
2011,08,19,11,17,18.60
2011,08,19,11,18,18.60
2011,08,19,11,19,18.60
2011,08,19,11,20,18.70
2011,08,19,11,21,18.70
2011,08,19,11,22,18.60
2011,08,19,11,23,18.60
2011,08,19,11,24,18.60
2011,08,19,11,25,18.60
2011,08,19,11,26,18.60
2011,08,19,11,27,18.60
2011,08,19,11,28,18.50
2011,08,19,11,29,18.40
2011,08,19,11,30,18.30
2011,08,19,11,31,18.30
2011,08,19,11,32,18.30
2011,08,19,11,33,18.30
2011,08,19,11,34,18.30
2011,08,19,11,35,18.40
2011,08,19,11,36,18.50
2011,08,19,11,37,18.60
2011,08,19,11,38,18.70
2011,08,19,11,39,18.80
2011,08,19,11,40,18.90
2011,08,19,11,41,18.90
2011,08,19,11,42,18.90
2011,08,19,11,43,19.10
2011,08,19,11,44,19.20
2011,08,19,11,45,19.30
2011,08,19,11,46,19.40
2011,08,19,11,47,19.60
2011,08,19,11,48,19.70
2011,08,19,11,49,19.80
2011,08,19,11,50,19.90
2011,08,19,11,51,19.90
2011,08,19,11,52,20.00
2011,08,19,11,53,20.00
2011,08,19,11,54,20.00
2011,08,19,11,55,20.10
2011,08,19,11,56,20.10
2011,08,19,11,57,20.00
2011,08,19,11,58,19.90
2011,08,19,11,59,19.80
2011,08,19,12,00,19.70
2011,08,19,12,01,19.60
2011,08,19,12,02,19.50
2011,08,19,12,03,19.50
2011,08,19,12,04,19.50
2011,08,19,12,05,19.50
2011,08,19,12,06,19.60
2011,08,19,12,07,19.70
2011,08,19,12,08,19.80
2011,08,19,12,09,20.00
2011,08,19,12,10,20.10
2011,08,19,12,11,20.10
2011,08,19,12,12,20.20
2011,08,19,12,13,20.30
2011,08,19,12,14,20.50
2011,08,19,12,15,20.60
2011,08,19,12,16,20.70
2011,08,19,12,17,20.70
2011,08,19,12,18,20.70
2011,08,19,12,19,20.70
2011,08,19,12,20,20.60
2011,08,19,12,21,20.40
2011,08,19,12,22,20.30
2011,08,19,12,23,20.30
2011,08,19,12,24,20.20
2011,08,19,12,25,20.20
2011,08,19,12,26,20.20
2011,08,19,12,27,20.20
2011,08,19,12,28,20.20
2011,08,19,12,29,20.20
2011,08,19,12,30,20.10
2011,08,19,12,31,20.00
2011,08,19,12,32,19.90
2011,08,19,12,33,19.90
2011,08,19,12,34,19.90
2011,08,19,12,35,19.90
2011,08,19,12,36,19.90
2011,08,19,12,37,19.90
2011,08,19,12,38,19.90
2011,08,19,12,39,20.00
2011,08,19,12,40,20.00
2011,08,19,12,41,20.10
2011,08,19,12,42,20.10
2011,08,19,12,43,20.20
2011,08,19,12,44,20.20
2011,08,19,12,45,20.20
2011,08,19,12,46,20.20
2011,08,19,12,47,20.30
2011,08,19,12,48,20.30
2011,08,19,12,49,20.30
2011,08,19,12,50,20.30
2011,08,19,12,51,20.30
2011,08,19,12,52,20.30
2011,08,19,12,53,20.30
2011,08,19,12,54,20.30
2011,08,19,12,55,20.20
2011,08,19,12,56,20.10
2011,08,19,12,57,20.00
2011,08,19,12,58,20.00
2011,08,19,12,59,19.90
2011,08,19,13,00,20.00
2011,08,19,13,01,20.00
2011,08,19,13,02,20.00
2011,08,19,13,03,19.90
2011,08,19,13,04,19.80
2011,08,19,13,05,19.80
2011,08,19,13,06,19.70
2011,08,19,13,07,19.60
2011,08,19,13,08,19.50
2011,08,19,13,09,19.40
2011,08,19,13,10,19.30
2011,08,19,13,11,19.20
2011,08,19,13,12,19.30
2011,08,19,13,13,19.30
2011,08,19,13,14,19.30
2011,08,19,13,15,19.20
2011,08,19,13,16,19.10
2011,08,19,13,17,19.00
2011,08,19,13,18,18.90
2011,08,19,13,19,18.70
2011,08,19,13,20,18.60
2011,08,19,13,21,18.50
2011,08,19,13,22,18.50
2011,08,19,13,23,18.50
2011,08,19,13,24,18.50
2011,08,19,13,25,18.60
2011,08,19,13,26,18.70
2011,08,19,13,27,18.70
2011,08,19,13,28,18.70
2011,08,19,13,29,18.70
2011,08,19,13,30,18.80
2011,08,19,13,31,18.80
2011,08,19,13,32,18.70
2011,08,19,13,33,18.70
2011,08,19,13,34,18.70
2011,08,19,13,35,18.70
2011,08,19,13,36,18.80
2011,08,19,13,37,18.80
2011,08,19,13,38,18.80
2011,08,19,13,39,18.70
2011,08,19,13,40,18.70
2011,08,19,13,41,18.70
2011,08,19,13,42,18.70
2011,08,19,13,43,18.60
2011,08,19,13,44,18.60
2011,08,19,13,45,18.70
2011,08,19,13,46,18.70
2011,08,19,13,47,18.70
2011,08,19,13,48,18.70
2011,08,19,13,49,18.70
2011,08,19,13,50,18.80
2011,08,19,13,51,18.80
2011,08,19,13,52,18.80
2011,08,19,13,53,18.90
2011,08,19,13,54,18.90
2011,08,19,13,55,18.90
2011,08,19,13,56,18.90
2011,08,19,13,57,18.90
2011,08,19,13,58,18.90
2011,08,19,13,59,19.00
2011,08,19,14,00,19.00
2011,08,19,14,01,19.10
2011,08,19,14,02,19.10
2011,08,19,14,03,19.20
2011,08,19,14,04,19.20
2011,08,19,14,05,19.20
2011,08,19,14,06,19.30
2011,08,19,14,07,19.30
2011,08,19,14,08,19.30
2011,08,19,14,09,19.40
2011,08,19,14,10,19.50
2011,08,19,14,11,19.60
2011,08,19,14,12,19.70
2011,08,19,14,13,19.80
2011,08,19,14,14,19.80
2011,08,19,14,15,19.90
2011,08,19,14,16,20.00
2011,08,19,14,17,20.10
2011,08,19,14,18,20.10
2011,08,19,14,19,20.20
2011,08,19,14,20,20.20
2011,08,19,14,21,20.10
2011,08,19,14,22,20.20
2011,08,19,14,23,20.10
2011,08,19,14,24,20.20
2011,08,19,14,25,20.30
2011,08,19,14,26,20.30
2011,08,19,14,27,20.30
2011,08,19,14,28,20.30
2011,08,19,14,29,20.30
2011,08,19,14,30,20.30
2011,08,19,14,31,20.30
2011,08,19,14,32,20.40
2011,08,19,14,33,20.40
2011,08,19,14,34,20.50
2011,08,19,14,35,20.40
2011,08,19,14,36,20.50
2011,08,19,14,37,20.50
2011,08,19,14,38,20.50
2011,08,19,14,39,20.60
2011,08,19,14,40,20.60
2011,08,19,14,41,20.60
2011,08,19,14,42,20.50
2011,08,19,14,43,20.50
2011,08,19,14,44,20.40
2011,08,19,14,45,20.40
2011,08,19,14,46,20.50
2011,08,19,14,47,20.60
2011,08,19,14,48,20.70
2011,08,19,14,49,20.70
2011,08,19,14,50,20.80
2011,08,19,14,51,20.80
2011,08,19,14,52,20.80
2011,08,19,14,53,20.70
2011,08,19,14,54,20.70
2011,08,19,14,55,20.60
2011,08,19,14,56,20.60
2011,08,19,14,57,20.60
2011,08,19,14,58,20.70
2011,08,19,14,59,20.70
2011,08,19,15,00,20.70
2011,08,19,15,01,20.70
2011,08,19,15,02,20.80
2011,08,19,15,03,20.80
2011,08,19,15,04,20.80
2011,08,19,15,05,20.80
2011,08,19,15,06,20.90
2011,08,19,15,07,20.90
2011,08,19,15,08,20.80
2011,08,19,15,09,20.90
2011,08,19,15,10,20.90
2011,08,19,15,11,21.00
2011,08,19,15,12,21.00
2011,08,19,15,13,21.10
2011,08,19,15,14,21.10
2011,08,19,15,15,21.20
2011,08,19,15,16,21.20
2011,08,19,15,17,21.30
2011,08,19,15,18,21.30
2011,08,19,15,19,21.30
2011,08,19,15,20,21.20
2011,08,19,15,21,21.20
2011,08,19,15,22,21.30
2011,08,19,15,23,21.30
2011,08,19,15,24,21.40
2011,08,19,15,25,21.40
2011,08,19,15,26,21.40
2011,08,19,15,27,21.40
2011,08,19,15,28,21.40
2011,08,19,15,29,21.40
2011,08,19,15,30,21.40
2011,08,19,15,31,21.40
2011,08,19,15,32,21.50
2011,08,19,15,33,21.60
2011,08,19,15,34,21.60
2011,08,19,15,35,21.70
2011,08,19,15,36,21.80
2011,08,19,15,37,21.90
2011,08,19,15,38,21.90
2011,08,19,15,39,22.00
2011,08,19,15,40,22.00
2011,08,19,15,41,22.00
2011,08,19,15,42,22.10
2011,08,19,15,43,22.10
2011,08,19,15,44,22.20
2011,08,19,15,45,22.20
2011,08,19,15,46,22.40
2011,08,19,15,47,22.50
2011,08,19,15,48,22.60
2011,08,19,15,49,22.80
2011,08,19,15,50,22.80
2011,08,19,15,51,22.90
2011,08,19,15,52,23.00
2011,08,19,15,53,23.00
2011,08,19,15,54,22.90
2011,08,19,15,55,22.80
2011,08,19,15,56,22.80
2011,08,19,15,57,22.80
2011,08,19,15,58,22.80
2011,08,19,15,59,22.80
2011,08,19,16,00,22.90
2011,08,19,16,01,22.90
2011,08,19,16,02,23.00
2011,08,19,16,03,23.10
2011,08,19,16,04,23.20
2011,08,19,16,05,23.30
2011,08,19,16,06,23.50
2011,08,19,16,07,23.50
2011,08,19,16,08,23.60
2011,08,19,16,09,23.50
2011,08,19,16,10,23.50
2011,08,19,16,11,23.50
2011,08,19,16,12,23.40
2011,08,19,16,13,23.30
2011,08,19,16,14,23.30
2011,08,19,16,15,23.30
2011,08,19,16,16,23.30
2011,08,19,16,17,23.30
2011,08,19,16,18,23.30
2011,08,19,16,19,23.20
2011,08,19,16,20,23.20
2011,08,19,16,21,23.20
2011,08,19,16,22,23.20
2011,08,19,16,23,23.10
2011,08,19,16,24,22.90
2011,08,19,16,25,22.70
2011,08,19,16,26,22.50
2011,08,19,16,27,22.30
2011,08,19,16,28,22.20
2011,08,19,16,29,22.00
2011,08,19,16,30,21.70
2011,08,19,16,31,21.40
2011,08,19,16,32,21.10
2011,08,19,16,33,21.00
2011,08,19,16,34,20.90
2011,08,19,16,35,20.90
2011,08,19,16,36,20.90
2011,08,19,16,37,20.90
2011,08,19,16,38,20.90
2011,08,19,16,39,21.10
2011,08,19,16,40,21.20
2011,08,19,16,41,21.20
2011,08,19,16,42,21.30
2011,08,19,16,43,21.30
2011,08,19,16,44,21.30
2011,08,19,16,45,21.40
2011,08,19,16,46,21.40
2011,08,19,16,47,21.40
2011,08,19,16,48,21.30
2011,08,19,16,49,21.20
2011,08,19,16,50,21.20
2011,08,19,16,51,21.20
2011,08,19,16,52,21.20
2011,08,19,16,53,21.20
2011,08,19,16,54,21.20
2011,08,19,16,55,21.20
2011,08,19,16,56,21.30
2011,08,19,16,57,21.30
2011,08,19,16,58,21.30
2011,08,19,16,59,21.30
2011,08,19,17,00,21.40
2011,08,19,17,01,21.40
2011,08,19,17,02,21.40
2011,08,19,17,03,21.40
2011,08,19,17,04,21.40
2011,08,19,17,05,21.40
2011,08,19,17,06,21.40
2011,08,19,17,07,21.40
2011,08,19,17,08,21.30
2011,08,19,17,09,21.30
2011,08,19,17,10,21.30
2011,08,19,17,11,21.30
2011,08,19,17,12,21.30
2011,08,19,17,13,21.30
2011,08,19,17,14,21.30
2011,08,19,17,15,21.30
2011,08,19,17,16,21.30
2011,08,19,17,17,21.30
2011,08,19,17,18,21.30
2011,08,19,17,19,21.40